EHI
0 0 0 0 0 0 0 0 0 0 0 0 0 0 0 0 0 0 0 0 0 0 0 0 0 0 0 0 0 0 0 0 0 0 0 0 0 0 0 0 0 0 0
0 0 0 0 0 0 0 0 0 0 0 0 0 0 0 0 0 0 0 0 0 0 0 0 0 0 0 0 0 0 0 0 0 0 0 0 0 0 0 0 0 0 0
0 0 0 0 0 0 0 0 0 0 0 0 0 0 0 0 0 0 0 0 0 0 0 0 0 0 0 0 0 0 0 0 0 0 0 0 0 0 0 0 0 0 0
0 0 0 0 0 0 0 0 0 0 0 0 0 0 0 0 0 0 0 0 0 0 0 0 0 0 0 0 0 0 0 0 0 0 0 0 0 0 0 0 0 0 0
0 0 0 0 0 0 0 0 0 0 0 0 0 0 0 0 0 0 0 0 0 0 0 0 0 0 0 0 0 0 0 0 0 0 0 0 0 0 0 0 0 0 0
0 0 0 0 0 0 0 0 0 0 0 0 0 0 0 0 0 0 0 0 0 0 0 0 0 0 0 0 0 0 0 0 0 0 0 0 0 0 0 0 0 0 0
0 0 0 0 0 0 0 0 0 0 0 0 0 0 0 0 0 0 0 0 0 0 0 0 0 0 0 0 0 0 0 0 0 0 0 0 0 0 0 0 0 0 0
0 0 0 0 0 0 0 0 0 0 0 0 0 0 0 0 0 0 0 0 0 0 0 0 0 0 0 0 0 0 0 0 0 0 0 0 0 0 0 0 0 0 0
0 0 0 0 0 0 0 0 0 0 0 0 0 0 0 0 0 0 0 0 0 0 0 0 0 0 0 0 0 0 0 0 0 0 0 0 0 0 0 0 0 0 0
0 0 0 0 0 0 0 0 0 0 0 0 0 0 0 0 0 0 0 0 0 0 0 0 0 0 0 0 0 0 0 0 0 0 0 0 0 0 0 0 0 0 0
0 0 0 0 0 0 0 0 0 0 0 0 0 0 0 0 0 0 0 0 0 0 0 0 0 0 0 0 0 0 0 0 0 0 0 0 0 0 0 0 0 0 0
0 0 0 0 0 0 0 0 0 0 0 0 0 0 0 0 0 0 0 0 0 0 0 0 0 0 0 0 0 0 0 0 0 0 0 0 0 0 0 0 0 0 0
0 0 0 0 0 0 0 0 0 0 0 0 0 0 0 0 0 0 0 0 0 0 0 0 0 0 0 0 0 0 0 0 0 0 0 0 0 0 0 0 0 0 0
0 0 0 0 0 0 0 0 0 0 0 0 0 0 0 0 0 0 0 0 0 0 0 0 0 0 0 0 0 0 0 0 0 0 0 0 0 0 0 0 0 0 0
0 0 0 0 0 0 0 0 0 0 0 0 0 0 0 0 0 0 0 0 0 0 0 0 0 0 0 0 0 0 0 0 0 0 0 0 0 0 0 0 0 0 0
0 0 0 0 0 0 0 0 0 0 0 0 0 0 0 0 0 0 0 0 0 0 0 0 0 0 0 0 0 0 0 0 0 0 0 0 0 0 0 0 0 0 0
0 0 0 0 0 0 0 0 0 0 0 0 0 0 0 0 0 0 0 0 0 0 0 0 0 0 0 0 0 0 0 0 0 0 0 0 0 0 0 0 0 0 0
0 0 0 0 0 0 0 0 0 0 0 0 0 0 0 0 0 0 0 0 0 0 0 0 0 0 0 0 0 0 0 0 0 0 0 0 0 0 0 0 0 0 0
0 0 0 0 0 0 0 0 0 0 0 0 0 0 0 0 0 0 0 0 0 0 0 0 0 0 0 0 0 0 0 0 0 0 0 0 0 0 0 0 0 0 0
0 0 0 0 0 0 0 0 0 0 0 0 0 0 0 0 0 0 0 0 0 0 0 0 0 0 0 0 0 0 0 0 0 0 0 0 0 0 0 0 0 0 0
0 0 0 0 0 0 0 0 0 0 0 0 0 0 0 0 0 0 0 0 0 0 0 0 0 0 0 0 0 0 0 0 0 0 0 0 0 0 0 0 0 0 0
0 0 0 0 0 0 0 0 0 0 0 0 0 0 0 0 0 0 0 0 0 0 0 0 0 0 0 0 0 0 0 0 0 0 0 0 0 0 0 0 0 0 0
0 0 0 0 0 0 0 0 0 0 0 0 0 0 0 0 0 0 0 0 0 0 0 0 0 0 0 0 0 0 0 0 0 0 0 0 0 0 0 0 0 0 0
0 0 0 0 0 0 0 0 0 0 0 0 0 0 0 0 0 0 0 0 0 0 0 0 0 0 0 0 0 0 0 0 0 0 0 0 0 0 0 0 0 0 0
0 0 0 0 0 0 0 0 0 0 0 0 0 0 0 0 0 0 0 0 0 0 0 0 0 0 0 0 0 0 0 0 0 0 0 0 0 0 0 0 0 0 0
0 0 0 0 0 0 0 0 0 0 0 0 0 0 0 0 0 0 0 0 0 0 0 0 0 0 0 0 0 0 0 0 0 0 0 0 0 0 0 0 0 0 0
Wind_Speed
10 13 14 13 12 11 11 11 11 11 11 11 12 12 12 12 13 13 13 13 14 14 14 15 15 16 16 16 16 16 17 17 17 18 18 18 17 17 17 16 14 13 17
13 15 15 14 13 12 11 11 11 11 11 11 12 12 12 12 12 12 13 13 13 14 14 14 14 15 15 15 15 15 15 15 16 15 15 15 16 17 17 17 16 12 16
15 15 16 14 13 13 12 12 11 11 11 11 11 11 11 11 12 12 12 13 13 13 13 13 14 14 14 14 14 15 15 14 14 13 12 10 12 16 16 15 15 15 15
15 14 14 15 14 13 12 12 12 11 11 11 11 11 11 11 11 11 12 12 12 12 13 13 13 13 13 13 13 13 13 13 12 10 8 9 10 13 14 13 13 13 13
15 13 14 16 15 14 13 12 12 11 10 11 11 10 11 11 11 11 11 11 12 12 12 12 12 12 12 12 12 13 12 11 9 8 8 8 8 11 12 11 11 11 11
15 14 15 16 15 14 13 12 11 10 10 10 10 10 10 10 10 10 10 10 10 11 11 11 11 11 11 11 11 11 11 10 6 7 7 7 7 10 10 9 9 9 9
15 13 15 16 15 14 13 12 11 10 10 10 10 10 10 10 9 9 9 9 9 9 9 9 9 9 9 10 10 10 10 8 7 6 6 6 7 9 8 8 8 7 7
14 13 14 16 15 14 13 12 11 10 10 10 9 9 9 9 8 8 8 8 8 8 8 8 8 8 8 8 9 8 8 7 5 6 5 5 8 9 8 7 7 7 7
13 13 12 14 14 14 13 12 11 10 10 9 9 8 8 7 7 7 6 6 5 5 5 5 5 6 6 6 7 7 6 4 5 4 5 4 8 10 9 8 8 7 7
12 12 12 13 13 13 13 12 11 10 10 9 9 8 7 6 6 5 4 4 3 3 3 3 4 5 5 6 6 6 4 5 4 4 3 5 9 10 10 10 9 9 9
12 12 12 12 12 11 11 12 11 11 9 10 9 9 6 4 4 4 3 1 1 2 2 3 4 5 3 1 2 4 5 4 5 4 4 6 10 11 11 11 10 10 10
15 15 13 12 12 11 9 9 8 8 8 8 6 7 5 3 2 1 4 2 2 2 2 2 3 2 4 3 0 4 3 5 5 4 3 6 10 11 12 12 12 12 12
15 14 13 12 12 11 8 7 6 5 6 6 7 6 4 4 3 3 2 3 3 3 3 1 4 3 4 4 5 5 5 6 4 4 3 5 10 11 12 12 12 12 12
14 15 14 14 12 12 10 8 7 6 5 5 6 6 5 3 3 2 2 2 2 2 2 3 3 4 5 5 6 6 6 5 5 4 4 5 9 11 12 12 12 12 12
14 15 15 15 14 12 10 7 7 7 6 6 5 6 6 4 4 4 3 3 3 3 3 3 4 5 5 5 5 7 8 8 7 6 4 3 7 9 10 11 11 11 11
14 15 15 16 15 13 11 9 8 7 6 6 6 7 7 5 4 4 4 3 3 3 3 4 5 5 5 5 7 7 8 8 7 7 6 4 3 6 8 8 8 9 9
14 14 15 15 15 14 13 11 8 7 7 6 6 7 7 6 5 5 4 3 3 3 3 3 4 4 4 5 7 7 7 7 7 7 6 4 2 1 4 6 7 8 9
12 13 14 12 15 15 13 11 8 7 7 6 6 5 7 7 6 5 3 3 2 2 2 3 3 4 4 5 6 6 6 5 7 6 5 3 2 2 1 4 6 8 10
12 13 14 15 15 15 13 10 8 7 7 6 5 4 5 5 5 4 3 2 2 2 2 2 3 4 5 5 6 6 6 6 5 4 3 1 1 2 2 2 3 6 10
11 12 14 15 15 14 11 8 7 6 6 5 4 5 6 5 5 4 2 3 2 2 2 2 2 3 4 5 6 6 6 5 3 2 2 1 1 2 3 4 4 4 8
11 12 14 15 14 12 10 9 8 7 6 5 4 5 5 5 5 4 3 3 2 2 1 1 2 3 3 4 5 5 4 3 3 2 2 3 3 3 4 5 5 6 6
11 13 14 14 15 14 10 9 7 7 5 4 4 5 5 5 5 4 4 3 3 2 2 1 1 2 2 3 4 5 4 2 1 2 4 5 6 4 5 6 8 8 8
11 12 11 14 14 14 12 8 7 5 4 5 6 5 5 5 5 5 4 4 3 2 2 1 1 2 2 2 2 3 4 4 6 4 4 5 6 6 7 7 9 9 10
10 10 11 13 14 14 13 12 13 9 8 8 6 6 6 6 6 5 5 4 4 2 2 2 1 1 2 3 2 2 4 4 5 6 4 5 6 8 9 8 9 10 10
10 9 10 12 13 13 13 13 13 10 8 6 7 8 7 6 6 6 5 5 4 3 2 2 2 2 2 3 3 3 4 4 6 6 8 8 7 7 7 9 9 9 9
9 9 10 12 12 12 13 13 12 12 10 10 10 9 7 5 5 6 5 4 4 3 3 3 2 3 3 4 4 4 4 4 5 6 9 11 10 8 9 8 8 8 8
Wind_Direction
163 161 161 155 148 138 127 121 114 104 99 96 92 87 81 76 72 69 66 63 62 60 59 58 57 57 55 54 53 53 54 51 48 46 44 47 53 54 51 45 43 48 46
155 159 161 157 149 140 130 122 115 111 106 100 93 87 82 78 75 72 69 67 64 62 61 59 57 56 56 56 55 55 56 54 50 46 45 48 49 50 49 47 45 46 47
153 157 161 161 153 145 135 127 122 117 111 104 96 91 87 83 79 75 72 69 67 65 62 61 59 58 56 56 56 56 55 53 48 44 47 46 48 49 47 45 44 44 44
155 159 160 156 155 150 142 135 128 123 116 110 102 97 93 89 83 79 75 72 70 68 66 63 61 60 58 57 57 57 54 50 44 38 45 42 43 47 47 44 43 42 41
157 160 152 158 156 152 146 141 135 127 121 116 108 103 98 92 87 82 78 75 72 69 66 64 61 59 56 55 55 56 53 46 40 43 44 36 38 38 42 40 38 38 36
159 160 154 161 158 153 149 145 139 134 128 120 113 109 103 96 90 86 81 77 73 70 67 64 61 58 55 53 53 52 50 38 30 43 35 28 27 23 29 32 29 29 28
160 161 157 163 162 157 154 150 145 141 134 127 120 115 109 103 98 92 86 80 74 70 67 64 61 57 54 51 50 48 45 32 30 36 27 24 14 1 12 18 15 14 16
161 163 158 164 164 161 159 154 150 148 142 135 130 122 116 111 107 100 92 84 76 70 64 60 57 54 51 48 46 42 38 15 23 29 22 18 3 345 354 358 353 351 352
165 167 166 167 169 167 163 159 156 155 149 143 139 132 125 121 116 106 98 90 82 74 66 57 52 48 43 37 35 31 28 2 343 15 3 8 352 336 339 341 337 334 333
172 175 174 174 173 172 169 163 158 160 157 152 145 137 134 136 130 117 122 96 79 68 56 43 37 35 33 25 18 14 356 283 353 349 349 5 338 329 329 329 327 325 323
181 182 181 179 176 176 172 162 164 165 163 160 154 146 161 164 148 147 94 76 7 6 5 12 18 27 6 42 14 340 288 321 338 331 339 353 326 323 321 320 318 316 314
186 187 185 184 180 178 172 171 175 174 171 180 172 170 179 172 166 183 135 212 295 321 304 343 338 292 282 312 313 260 305 323 317 322 343 339 322 319 317 315 313 310 308
187 187 189 187 184 182 178 179 176 175 175 182 181 179 181 185 192 213 210 196 227 261 274 266 265 305 317 328 319 315 320 317 312 315 325 335 318 317 316 314 311 309 307
189 191 192 189 188 189 186 182 182 180 179 182 184 187 189 196 212 222 235 247 259 259 276 278 293 303 305 305 306 309 308 303 304 308 319 324 315 315 314 313 312 311 309
194 194 194 193 191 190 190 187 189 187 185 187 187 195 202 207 215 223 232 237 259 275 273 280 286 295 296 302 300 301 303 304 302 302 301 309 312 314 316 317 318 317 317
198 195 193 195 195 191 192 192 193 191 187 192 191 200 207 214 221 228 237 241 251 261 276 280 286 292 296 300 302 303 302 302 297 300 304 301 292 320 326 330 334 334 333
200 195 193 194 196 195 196 196 193 192 191 195 197 202 206 211 221 227 237 239 247 254 263 274 282 284 292 297 297 304 304 303 302 300 304 307 308 359 346 351 351 350 349
202 198 194 190 195 196 195 194 193 193 193 197 199 199 207 214 220 227 236 240 239 243 262 276 287 292 297 303 307 309 301 301 297 306 300 296 311 329 63 26 1 357 350
203 197 192 190 193 193 193 191 191 190 193 195 196 196 200 210 214 219 227 230 215 220 242 272 288 304 308 313 311 306 303 302 308 296 288 279 324 325 334 34 338 341 339
201 196 190 188 189 186 186 184 180 183 186 187 185 189 193 195 197 199 196 197 195 209 239 266 290 307 313 319 308 300 298 303 294 290 278 245 276 309 318 323 314 323 323
192 192 189 185 183 180 180 180 180 182 179 177 176 181 181 181 177 179 182 180 191 215 243 282 302 302 318 329 308 309 297 275 287 266 267 282 290 298 300 310 320 323 315
188 188 185 184 181 182 182 180 182 170 170 165 160 167 171 172 167 170 180 179 177 185 191 201 274 302 326 336 325 318 316 286 161 266 290 292 298 296 295 305 317 315 312
187 184 182 181 179 181 176 165 149 142 143 162 166 163 165 167 165 168 173 172 168 185 182 184 237 287 306 316 325 319 317 318 322 286 285 293 297 298 301 308 308 308 307
182 178 178 176 177 177 174 175 174 178 180 181 171 162 160 165 164 162 164 165 166 172 172 171 216 268 286 295 292 274 285 300 298 305 289 283 293 296 297 301 303 303 301
170 171 172 172 175 176 180 181 183 186 179 161 159 160 160 158 159 159 163 164 166 171 177 181 207 241 264 283 286 284 276 273 264 277 294 302 297 288 293 294 295 295 297
164 166 169 172 174 176 181 183 186 180 168 162 166 166 165 158 160 164 167 170 174 178 185 201 220 240 257 265 268 267 271 274 280 277 285 297 300 302 299 291 287 288 291